Regional Weather Roundup
Issued by NWS Northern Indiana

Home | Current Version | Previous Version | Graphics & Text | Print | Product List | Glossary On
Versions: 1 2 3 4 5 6 7 8 9 10 11 12 13 14 15 16 17 18 19 20 21 22 23 24 25 26 27 28 29 30 31 32 33 34 35 36 37 38 39 40 41 42 43 44 45 46 47 48 49 50
000
ASUS43 KIWX 261110
RWRIWX

KIWX WEATHER ROUNDUP
NATIONAL WEATHER SERVICE NORTHERN INDIANA
600 AM EST MON JAN 26 2015

NOTE: "FAIR" INDICATES FEW OR NO CLOUDS BELOW 12,000 FEET WITH NO
SIGNIFICANT WEATHER AND/OR OBSTRUCTIONS TO VISIBILITY.

* THESE STATIONS ARE NOT UNDER NWS QUALITY CONTROL. THEY ALSO MAY NOT
  REPORT WEATHER SUCH AS PRECIPITATION OR FOG.

INZ001>027-261200-
NORTHERN INDIANA

CITY           SKY/WX    TMP DP  RH WIND       PRES   REMARKS
GARY*          CLEAR     19   9  63 MISG      29.98S
VALPARAISO     PTCLDY    13   8  81 N3        29.96S
MICHIGAN CITY* CLEAR     12   7  79 CALM      29.98S
LAPORTE*       PTCLDY    12   9  87 CALM      29.96S
KNOX*          PTCLDY    11   2  66 NW5       29.96R WCI   3
SOUTH BEND     PTCLDY     9   5  84 NW6       29.96R WCI  -1
GOSHEN         CLEAR     10   5  80 NW5       29.93R WCI   2
MONTICELLO*    MOCLDY    16   9  74 NE5       29.95R WCI   9
LOGANSPORT*    PTCLDY    14   9  79 N6        29.95R WCI   5
ROCHESTER*     PTCLDY    16  10  79 NW5       29.95R WCI   9
WARSAW*        CLEAR     10   9  92 N3        29.92S
ANGOLA*        CLEAR      9   7  92 CALM      29.88F
FORT WAYNE     PTCLDY     9   4  80 N7        29.91S WCI  -2
HUNTINGTON*    CLEAR     11   2  67 N3        29.91S
PERU/GRISSOM   PTCLDY    14   8  76 N7        29.91S WCI   4
MARION*        CLEAR     16   9  74 N5        29.91S WCI   9

$$
INZ028>050-261200-
CENTRAL INDIANA

CITY           SKY/WX    TMP DP  RH WIND       PRES   REMARKS
LAFAYETTE      MOCLDY    19  14  81 N6        29.95R WCI  11
KOKOMO*        FAIR      14   7  73 N3        29.92S
MUNCIE*        PTCLDY    16  10  77 N7        29.88S WCI   6
INDIANAPOLIS   CLOUDY    20  14  77 N8        29.90F WCI  10

$$
MIZ043>046-050>051-056>058-064>065-071>073-077>080-261200-
SOUTHWEST LOWER MICHIGAN

CITY           SKY/WX    TMP DP  RH WIND       PRES   REMARKS
BATTLE CREEK   CLEAR     11   6  81 NE3       29.92F
BENTON HARBOR  CLEAR     10   8  92 CALM      29.97R
COLDWATER*     CLEAR      9   7  92 N3        29.91S
HILLSDALE*     CLEAR     10   7  87 NE3       29.87F
HOLLAND        CLEAR     11   6  81 CALM      29.99R
GRAND RAPIDS   CLEAR      9   5  84 N5        29.97R WCI   1
KALAMAZOO      CLEAR      8   4  83 N7        29.94R WCI  -3
STURGIS*       CLEAR      9   7  92 CALM      29.91S
THREE RIVERS*  FAIR       9   6  85 NW3       29.94R

$$
OHZ001>008-015>018-024>025-261200-
NORTHWEST OHIO

CITY           SKY/WX    TMP DP  RH WIND       PRES   REMARKS
WAUSEON*       FAIR      12   5  73 N8        29.89F WCI   1
DEFIANCE       CLEAR      9   4  80 N6        29.91F WCI  -1
FINDLAY        CLOUDY    16   9  74 N13       29.85F WCI   2
TOLEDO EXPRESS CLEAR     12   3  67 N7        29.89F WCI   1
TOLEDO METCALF PTCLDY    14   6  70 N9        29.90F WCI   2
LIMA           CLOUDY    16   9  74 N14       29.84S WCI   2

$$
AND FOR LAKE MICHIGAN COASTAL AND OPEN LAKE BUOY OBSERVATIONS

STATION/POSITION TEMP    WIND        PRES    VSBY  WAVE
                 AIR SEA DIR/SP/G                  HT/PER
                 (F)     (DEG/KT/KT) (MB)    (MI)  (FT/S)
CALUMET HARBOR    22     360/  5/  6   N/A
MICHIGAN CITY     17      60/  5/  8   N/A
SAINT JOSEPH      14     360/  1/  2 1015.2F

$$
&&


USA.gov is the U.S. government's official web portal to all federal, state and local government web resources and services.